Погода в Напасе

Погода в Напасе : погода сейчас, прогноз погоды и архив. Всё, что Вы хотите узнать о погоде в Напасе!

Хотите узнать прогноз погоды в Напасе? Тогда Вам сюда: Погода в Напасе

Поиск расширенной информации на нашем сайте:

Другие новости

Новости СМИ2

Главная страница сайта

Новости сайта

03.07.2017

Напоминаем, что на нашем специализированном сайте Метеоцентр.Азия вы можете получить высокодетализированные автоматические прогнозы погоды по пунктам России, СНГ и мира в авиационном формате (включающие направление и скорость ветра, видимость, явления погоды, количество и форму облачности, нижнюю и верхнюю границу облачности).


Погода в Напасе - сегодня

Время (UTC), дата Ветер
(°,м/с) 
Видим.   Явления Облачность Т
(°С)
Тd
(°С)
f(%) Тe
(°С)
Pmin
(гПа)
dP
(гПа)
Po
(мм)
O2
(г/м3)
Тmin Tmax R s Состояние
почвы
21 14.02.18 360 (С) 20000 м    ясно 
-25.2 -27.7 80 -28  1029.5  -1.1  764  341           
00 15.02.18 360 (С) 20000 м    ясно 
-25.8 -28.3 79 -26  1028.8  -0.7  764  342  -25.8      60  равномерный
сухой снег
100% 
03 15.02.18 030 (СВ) 20000 м    3/0 средняя, верхняя 
[Ac trans|Ci sp]
-26 -28.4 80 -29  1028.7  -0.1  763  342  -26         
06 15.02.18 040 (СВ) 20000 м    3/0 верхняя 
[Ci sp]
-20.2 -22.8 80 -23  1027.6  -0.9  763  334           
09 15.02.18 040 (СВ) 20000 м    3/0 верхняя 
[Ci sp]
-15 -18.4 75 -17  1027.2  -0.2  763  327           
12 15.02.18 030 (СВ) 20000 м    3/0 верхняя 
[Ci sp]
-16.5 -19.1 80 -19  1027.7  0.5  763  329    -14.1       
15 15.02.18 030 (СВ) 20000 м    ясно 
-19.2 -21.1 85 -22  1028.1  0.2  763  332           
18 15.02.18 290 (З) 20000 м    ясно 
-24.3 -26.8 80 -25  1028.7  0.4  763  339           
21 15.02.18 тихо ()   20000 м    ясно 
-22.6 -29 56 -23  1029.1  0.4  764  337           
00 16.02.18 280 (З) 20000 м    ясно 
-28.4 -31.5 75 -29  1030  0.7  764  346  -28.4      60  равномерный
сухой снег
100% 
06 16.02.18 150 (ЮВ) 20000 м    9/9 300 м кучево-дожд., средняя 
[Cb calv|Ac cuf]
-20.5 -23.1 80 -21  1031.8  0.9  766  335           
09 16.02.18 130 (ЮВ) 20000 м    9/0 средняя 
[Ac trans]
-16.1 -18.8 80 -16  1031.9  0.3  766  330           
12 16.02.18 230 (ЮЗ) 20000 м    10/0 средняя, верхняя 
[Ac trans|Ci sp]
-16.1 -18 85 -18  1032.5  0.6  767  330    -14.2       
15 16.02.18 240 (ЮЗ) 20000 м    10/10 750 м 
[Sc]
-16.8 -18.7 85 -17  1033.4  0.8  767  331           
00 17.02.18 200 (Ю) 4000 м  слаб. ливневой снег  10/10 210 м кучево-дожд. 
[Cb cap]
-17.5 -19.4 85 -18  1033.7  -0.1  767  332  -19.5    0.2  60  равномерный
сухой снег
100% 
09 17.02.18 190 (Ю) 10 км  слаб. ливневой снег  10/5 300 м кучево-дожд., средняя, верхняя 
[Cb calv|Ac lent|Ci fib]
-11 -14.6 75 -14  1031.8  -1.2  766  323           
12 17.02.18 240 (ЮЗ) 10 км  слаб. ливневой снег  10/10 480 м кучево-дожд. 
[Cb cap]
-12.2 -14.9 80 -16  1031.7  -0.2  766  324    -10.2  0.2     
18 17.02.18 190 (Ю) 10 км  слаб. снег{ливн. осадки}  10/0 средняя 
[As trans]
-11.6 -13.6 85 -14  1030  -1  765  323           
21 17.02.18 190 (Ю) 4000 м  слаб. снег  10/0 средняя 
[As op]
-10.6 -12.6 85 -12  1029.3  -0.7  764  322           
00 18.02.18 190 (Ю) 4000 м  слаб. снег  10/0 средняя 
[As op]
-11 -13 85 -14  1028.7  -0.6  764  322  -13.7    0.5  60  равномерный
сухой снег
100% 
03 18.02.18 190 (Ю) 20000 м  в посл. час снег  8/0 средняя, верхняя 
[As trans|Ci fib]
-12.6 -14.6 85 -16  1028.5  -0.3  764  324           
09 18.02.18 190 (Ю) 10 км  слаб. снег  10/4 200 м средняя 
[Frnb|As op]
-10.7 -14.3 75 -14  1027.3  -0.4  763  321           
12 18.02.18 190 (Ю) 10 км  слаб. снег  10/0 средняя 
[As op]
-12.7 -16.2 75 -15  1027.1  -0.3  763  324    -10.4  0.0     
18 18.02.18 160 (Ю) 10 км  слаб. снег  10/0 средняя 
[As op]
-17.2 -19.1 85 -20  1026.2  -1  762  329           
00 19.02.18 190 (Ю) 10 км  слаб. ливневой снег  10/10 210 м кучево-дожд. 
[Cb cap]
-12.7 -14.7 85 -16  1024.7  -0.3  761  323  -17.2    0.4  61  равномерный
сухой снег
100% 
Время (UTC), дата Ветер
(°,м/с) 
Видим.   Явления Облачность Т
(°С)
Тd
(°С)
f(%) Тe
(°С)
Pmin
(гПа)
dP
(гПа)
Po
(мм)
O2
(г/м3)
Тmin Tmax R s Состояние
почвы

Для получения пояснительной информации подведите курсор к названию столбца.

ПОГОДА в Напасе - архив

Всё, что Вы хотите узнать о погоде в Напасе - удобно и подробно!

Выберите нужную дату (начиная с 1 января 2015* года) и нажмите кнопку "Найти".
Будут отображены архивные сводки погоды по пункту Напас, начиная с указанной даты.


Отображать данные в формате CSV (для использования в таблицах Excel)


Внимание! Наш архив погоды предназначен исключительно для личного некоммерческого использования в познавательных целях. Если Вам необходимы официальные справки о состоянии погоды (для производственных, юридических, коммерческих и т.п. целей), обращайтесь в органы Росгидромета.

*Примечание: данная дата относится к архиву по метеостанциям СССР (Россия, СНГ, Балтия).
Архив по метеостанциям Зарубежной Европы и Азии (кроме Китая) хранится 10 дней, по другим регионам земного шара (Китай, Африка, Америка, Австралия, Океания) - 1 день.

Напас - район местоположения метеостанции


Название, широта, долгота, высота метеостанции:
Напас 59.9°ш. 81.9°д. 76 м над ур. моря [Российская Федерация]

Дополнительная информация

В oтличие oт бoльшинства пoгoдных сайтoв мы публикуем пoдрoбную метеoинфoрмацию в детальнoм прoфессиoнальнoм фoрмате.

Характеристики температуры и влажнoсти вoздуха измеряются на высoте 2 м в тени вдали oт зданий и деревьев.
Скoрoсть ветра измеряется на высoте 10 м (на урoвне рoста челoвека скoрoсть ветра ниже в 1.5-2 раза). Если метеoстанция нахoдится в гoрoде или в лесу, тo скoрoсть ветра занижена на 2-4 м/с пo сравнению с oткрытым местoм. Скoрoсть ветра над акватoриями крупных рек и oзёр, а также на вершинах хoлмoв на 2-5 м/с выше, чем в oбычных услoвиях.
Атмoсфернoе давление в разных тoчках местнoсти мoжет значительнo oтличаться oт давления на метеoстанции, в зависимoсти oт услoвий рельефа (при пoдъёме на 10 м давление пoнижается примернo на 1 мм рт.ст.).